Simultaneous Nadir Overpasses (SNOs) Predictions

Prediction of SNOs between GOES-14 and NPP Satellite Orbit:

Table of predicted SNOs for the next 14.0 days since TLE Epoch: 3/4/2023
Index Date Time (GOES-14) GOES-14 Lat,Lon NPP Lat,Lon Distance(km) Time Diff (sec)
1 03/05/2023 08:53:27 0.09,-107.89 0.80,-111.13 369.31 80
2 03/06/2023 08:32:04 0.09,-107.87 -0.17,-106.60 144.56 80
3 03/07/2023 20:54:03 -0.10,-107.90 -1.00,-111.91 457.36 80
4 03/08/2023 20:38:00 -0.09,-107.89 0.04,-107.39 57.27 80
5 03/11/2023 08:41:07 0.10,-107.80 0.17,-108.13 36.74 80
6 03/12/2023 08:19:44 0.09,-107.78 -0.82,-103.59 476.96 80
7 03/13/2023 20:41:43 -0.10,-107.80 -0.32,-108.91 125.95 80
8 03/14/2023 20:25:40 -0.10,-107.78 0.67,-104.38 388.21 80
9 03/16/2023 08:47:29 0.11,-107.71 0.56,-109.64 219.98 80
10 03/17/2023 08:26:05 0.11,-107.69 -0.44,-105.11 293.36 80
